Kalynove

Ukraine / Luhansk Region     48˚33′55″N   38˚31′12″E
temp.,
°C
wind,
m/s
gust,
m/s
humid.,
%
clouds,
%
prec.,
mm/h
press.,
hPa
HPBL,
m
29 november, sun
sun2923:00+1˚sse5108189 0.0 1024260
02:00se489472 0.0 1024210
05:00+2˚se6109592 0.0 1024318
08:00+3˚se7119696 0.0 1025453
11:00+5˚sse61083100 0.0 1025486
14:00+6˚sse6108399 0.0 1025549
17:00+6˚se7118297 0.0 1025600
20:00+5˚se7138498 0.0 1026587
30 november, mon
mon3023:00+5˚se61184100 0.0 1026587
02:00+5˚se61189100 0.0 1026540
05:00+5˚se61188100 0.0 1026613
08:00+5˚se61081100 0.0 1027712
11:00+5˚ese7107097 0.0 1026764
14:00+5˚ese7106997 0.0 1026908
17:00+5˚ese61073100 0.0 1026892
20:00+4˚ese71172100 0.0 1026776
1 december, tue
tue123:00+1˚ese6117597 0.0 1026624
02:00ese6117792 0.0 1027532
05:00−1˚e6128536 0.0 1027491
08:00−1˚ese7128444 0.0 1028524
11:00+2˚e7117476 0.0 1027639
14:00+2˚e8117461 0.0 1027687
17:00+1˚ese8127596 0.0 1027827
20:00e8137996 0.0 1028606
2 december, wed
wed223:00−1˚ese7138286 0.0 1029616
02:00−1˚ese7128192 0.0 1029612
05:00−2˚ese7128384 0.0 1029545
08:00−2˚ese7118291 0.0 1030581
11:00−1˚ese71076100 0.0 1030610
14:00+1˚ese71174100 0.0 1029687
17:00−1˚ese6127963 0.0 1030556
20:00−2˚ese7137676 0.0 1030530
3 december, thu
thu323:00−3˚ese6117758 0.0 1031520
02:00−2˚ese7108160 0.0 1031591
05:00−2˚ese61077100 0.0 1031518
08:00−2˚ese61177100 0.0 1031588
11:00−1˚ese61072100 0.0 1031666
14:00−1˚ese6973100 0.0 1030687
17:00−1˚ese6107397 0.0 1030660
20:00−2˚ese7127298 0.0 1030542